Location: Newark
(45.5000°N, 11.4167°E)
Time: 22:26:20
(UTC+00:00)

A-11 Canister half - Pass Details

Date: 19 August 2019
Orbit: 1514 x 1686 km, 47.2° (Epoch: 14 September)

Event Time Altitude Azimuth Distance (km) Brightness Sun altitude
Rises 21:15:29 0° 276° (W) 4,758 12.1 -25.6°
Reaches altitude 10° 21:18:32 10° 277° (W) 3,796 11.5 -25.9°
Maximum altitude 21:28:17 82° 6° (N) 1,648 9.1 -26.8°
Enters shadow 21:36:09 19° 94° (E) 3,240 10.4 -27.5°
Drops below altitude 10° 21:38:24 10° 95° (E) 3,923 - -27.7°
Sets 21:41:35 0° 97° (E) 4,923 - -27.9°
